Wetterdaten: Mittwoch, 17.06.2015
Datum Zeit Temp. A. Feuchte A. Luftdruck Regen Wind Richtung Richtung Sonnenschein ET UV Solar Taupunkt Windchill Windben Empfang
17.06.2015 00:00 13,9 C 92 % 1019,1 hPa 0,0 l/m 0,0 km/h (0 Bft) O-SO 118 0 min 0,000 mm 0,0 UV-I 0 W/m 12,6 C 13,9 C 0,0 km/h (0 Bft) 0,00 %
17.06.2015 00:05 13,9 C 92 % 1019,2 hPa 0,0 l/m 0,0 km/h (0 Bft) O 88 0 min 0,000 mm 0,0 UV-I 0 W/m 12,6 C 13,9 C 0,0 km/h (0 Bft) 0,00 %
17.06.2015 00:10 13,9 C 92 % 1019,2 hPa 0,0 l/m 0,0 km/h (0 Bft) SO 137 0 min 0,000 mm 0,0 UV-I 0 W/m 12,6 C 13,9 C 0,0 km/h (0 Bft) 0,00 %
17.06.2015 00:15 13,9 C 92 % 1019,1 hPa 0,0 l/m 0,0 km/h (0 Bft) SO 134 0 min 0,000 mm 0,0 UV-I 0 W/m 12,6 C 13,9 C 0,0 km/h (0 Bft) 0,00 %
17.06.2015 00:20 13,9 C 92 % 1019,3 hPa 0,0 l/m 0,0 km/h (0 Bft) S-SO 151 0 min 0,000 mm 0,0 UV-I 0 W/m 12,6 C 13,9 C 0,0 km/h (0 Bft) 0,00 %
17.06.2015 00:25 13,9 C 93 % 1019,4 hPa 0,0 l/m 0,0 km/h (0 Bft) S 188 0 min 0,000 mm 0,0 UV-I 0 W/m 12,8 C 13,9 C 0,0 km/h (0 Bft) 0,00 %
17.06.2015 00:30 13,9 C 91 % 1019,3 hPa 0,0 l/m 0,0 km/h (0 Bft) S 179 0 min 0,000 mm 0,0 UV-I 0 W/m 12,5 C 13,9 C 0,0 km/h (0 Bft) 0,00 %
17.06.2015 00:35 13,9 C 91 % 1019,2 hPa 0,0 l/m 0,0 km/h (0 Bft) S-SO 156 0 min 0,000 mm 0,0 UV-I 0 W/m 12,5 C 13,9 C 0,0 km/h (0 Bft) 0,00 %
17.06.2015 00:40 14,0 C 91 % 1019,4 hPa 0,0 l/m 0,0 km/h (0 Bft) SO 127 0 min 0,000 mm 0,0 UV-I 0 W/m 12,6 C 14,0 C 0,0 km/h (0 Bft) 0,00 %
17.06.2015 00:45 14,0 C 91 % 1019,2 hPa 0,0 l/m 0,0 km/h (0 Bft) SO 125 0 min 0,000 mm 0,0 UV-I 0 W/m 12,6 C 14,0 C 0,0 km/h (0 Bft) 0,00 %
17.06.2015 00:50 14,0 C 91 % 1019,5 hPa 0,0 l/m 0,0 km/h (0 Bft) S 179 0 min 0,000 mm 0,0 UV-I 0 W/m 12,6 C 14,0 C 0,0 km/h (0 Bft) 0,00 %
17.06.2015 00:55 14,0 C 92 % 1019,4 hPa 0,0 l/m 0,0 km/h (0 Bft) S 183 0 min 0,000 mm 0,0 UV-I 0 W/m 12,7 C 14,0 C 0,0 km/h (0 Bft) 0,00 %
17.06.2015 01:00 14,0 C 91 % 1019,5 hPa 0,0 l/m 0,0 km/h (0 Bft) O-SO 119 0 min 0,000 mm 0,0 UV-I 0 W/m 12,6 C 14,0 C 0,0 km/h (0 Bft) 0,00 %
17.06.2015 01:05 13,9 C 92 % 1019,4 hPa 0,0 l/m 0,0 km/h (0 Bft) S-SO 158 0 min 0,000 mm 0,0 UV-I 0 W/m 12,6 C 13,9 C 0,0 km/h (0 Bft) 0,00 %
17.06.2015 01:10 13,9 C 92 % 1019,5 hPa 0,0 l/m 0,0 km/h (0 Bft) S 178 0 min 0,000 mm 0,0 UV-I 0 W/m 12,6 C 13,9 C 0,0 km/h (0 Bft) 0,00 %
17.06.2015 01:15 13,9 C 92 % 1019,6 hPa 0,0 l/m 0,0 km/h (0 Bft) S 178 0 min 0,000 mm 0,0 UV-I 0 W/m 12,6 C 13,9 C 0,0 km/h (0 Bft) 0,00 %
17.06.2015 01:20 13,8 C 92 % 1019,8 hPa 0,0 l/m 0,0 km/h (0 Bft) S 178 0 min 0,000 mm 0,0 UV-I 0 W/m 12,5 C 13,8 C 0,0 km/h (0 Bft) 0,00 %
17.06.2015 01:25 13,8 C 92 % 1019,7 hPa 0,0 l/m 0,0 km/h (0 Bft) S 178 0 min 0,000 mm 0,0 UV-I 0 W/m 12,5 C 13,8 C 0,0 km/h (0 Bft) 0,00 %
17.06.2015 01:30 13,7 C 92 % 1019,5 hPa 0,0 l/m 0,0 km/h (0 Bft) SO 138 0 min 0,000 mm 0,0 UV-I 0 W/m 12,4 C 13,7 C 0,0 km/h (0 Bft) 0,00 %
17.06.2015 01:35 13,5 C 93 % 1019,8 hPa 0,0 l/m 0,0 km/h (0 Bft) SO 139 0 min 0,000 mm 0,0 UV-I 0 W/m 12,4 C 13,5 C 0,0 km/h (0 Bft) 0,00 %
17.06.2015 01:40 13,5 C 93 % 1019,9 hPa 0,0 l/m 0,0 km/h (0 Bft) SO 140 0 min 0,000 mm 0,0 UV-I 0 W/m 12,4 C 13,5 C 0,0 km/h (0 Bft) 0,00 %
17.06.2015 01:45 13,4 C 93 % 1019,9 hPa 0,0 l/m 0,0 km/h (0 Bft) SO 140 0 min 0,000 mm 0,0 UV-I 0 W/m 12,3 C 13,4 C 0,0 km/h (0 Bft) 0,00 %
17.06.2015 01:50 13,3 C 93 % 1019,9 hPa 0,0 l/m 0,0 km/h (0 Bft) S 174 0 min 0,000 mm 0,0 UV-I 0 W/m 12,2 C 13,3 C 0,0 km/h (0 Bft) 0,00 %
17.06.2015 01:55 13,3 C 93 % 1019,8 hPa 0,0 l/m 0,0 km/h (0 Bft) S 174 0 min 0,000 mm 0,0 UV-I 0 W/m 12,2 C 13,3 C 0,0 km/h (0 Bft) 0,00 %
17.06.2015 02:00 13,2 C 94 % 1019,7 hPa 0,0 l/m 0,0 km/h (0 Bft) S 174 0 min 0,000 mm 0,0 UV-I 0 W/m 12,3 C 13,2 C 0,0 km/h (0 Bft) 0,00 %
17.06.2015 02:05 13,1 C 94 % 1020,0 hPa 0,0 l/m 0,0 km/h (0 Bft) S 174 0 min 0,000 mm 0,0 UV-I 0 W/m 12,2 C 13,1 C 0,0 km/h (0 Bft) 0,00 %
17.06.2015 02:10 13,0 C 95 % 1020,3 hPa 0,0 l/m 0,0 km/h (0 Bft) S 185 0 min 0,000 mm 0,0 UV-I 0 W/m 12,2 C 13,0 C 0,0 km/h (0 Bft) 0,00 %
17.06.2015 02:15 12,9 C 95 % 1020,1 hPa 0,0 l/m 0,0 km/h (0 Bft) S-SO 150 0 min 0,000 mm 0,0 UV-I 0 W/m 12,1 C 12,9 C 0,0 km/h (0 Bft) 0,00 %
17.06.2015 02:20 12,8 C 95 % 1020,0 hPa 0,0 l/m 0,0 km/h (0 Bft) S-SO 150 0 min 0,000 mm 0,0 UV-I 0 W/m 12,0 C 12,8 C 0,0 km/h (0 Bft) 0,00 %
17.06.2015 02:25 12,6 C 95 % 1020,1 hPa 0,0 l/m 0,0 km/h (0 Bft) S-SO 150 0 min 0,000 mm 0,0 UV-I 0 W/m 11,8 C 12,6 C 0,0 km/h (0 Bft) 0,00 %
17.06.2015 02:30 12,4 C 94 % 1020,0 hPa 0,0 l/m 0,0 km/h (0 Bft) SO 125 0 min 0,000 mm 0,0 UV-I 0 W/m 11,5 C 12,4 C 0,0 km/h (0 Bft) 0,00 %
17.06.2015 02:35 12,1 C 94 % 1020,3 hPa 0,0 l/m 0,0 km/h (0 Bft) SO 128 0 min 0,000 mm 0,0 UV-I 0 W/m 11,2 C 12,1 C 0,0 km/h (0 Bft) 0,00 %
17.06.2015 02:40 12,0 C 93 % 1020,1 hPa 0,0 l/m 0,0 km/h (0 Bft) SO 130 0 min 0,000 mm 0,0 UV-I 0 W/m 10,9 C 12,0 C 0,0 km/h (0 Bft) 0,00 %
17.06.2015 02:45 12,0 C 93 % 1020,1 hPa 0,0 l/m 0,0 km/h (0 Bft) SO 128 0 min 0,000 mm 0,0 UV-I 0 W/m 10,9 C 12,0 C 0,0 km/h (0 Bft) 0,00 %
17.06.2015 02:50 11,9 C 93 % 1020,1 hPa 0,0 l/m 0,0 km/h (0 Bft) O-SO 123 0 min 0,000 mm 0,0 UV-I 0 W/m 10,8 C 11,9 C 0,0 km/h (0 Bft) 0,00 %
17.06.2015 02:55 11,8 C 92 % 1020,3 hPa 0,0 l/m 0,0 km/h (0 Bft) O-SO 115 0 min 0,000 mm 0,0 UV-I 0 W/m 10,5 C 11,8 C 0,0 km/h (0 Bft) 0,00 %
17.06.2015 03:00 11,8 C 92 % 1020,3 hPa 0,0 l/m 0,0 km/h (0 Bft) SO 128 0 min 0,000 mm 0,0 UV-I 0 W/m 10,5 C 11,8 C 0,0 km/h (0 Bft) 0,00 %
17.06.2015 03:05 11,7 C 90 % 1020,4 hPa 0,0 l/m 0,0 km/h (0 Bft) O 98 0 min 0,000 mm 0,0 UV-I 0 W/m 10,1 C 11,7 C 0,0 km/h (0 Bft) 0,00 %
17.06.2015 03:10 11,6 C 87 % 1020,3 hPa 0,0 l/m 0,0 km/h (0 Bft) S-SO 162 0 min 0,000 mm 0,0 UV-I 0 W/m 9,5 C 11,6 C 0,0 km/h (0 Bft) 0,00 %
17.06.2015 03:15 11,5 C 85 % 1020,5 hPa 0,0 l/m 0,0 km/h (0 Bft) S-SO 162 0 min 0,000 mm 0,0 UV-I 0 W/m 9,1 C 11,5 C 0,0 km/h (0 Bft) 0,00 %
17.06.2015 03:20 11,5 C 84 % 1020,3 hPa 0,0 l/m 0,0 km/h (0 Bft) S-SO 162 0 min 0,000 mm 0,0 UV-I 0 W/m 8,9 C 11,5 C 0,0 km/h (0 Bft) 0,00 %
17.06.2015 03:25 11,4 C 85 % 1020,3 hPa 0,0 l/m 0,0 km/h (0 Bft) S-SO 162 0 min 0,000 mm 0,0 UV-I 0 W/m 9,0 C 11,4 C 0,0 km/h (0 Bft) 0,00 %
17.06.2015 03:30 11,3 C 87 % 1020,3 hPa 0,0 l/m 0,0 km/h (0 Bft) S-SO 163 0 min 0,000 mm 0,0 UV-I 0 W/m 9,2 C 11,3 C 0,0 km/h (0 Bft) 0,00 %
17.06.2015 03:35 11,2 C 90 % 1020,4 hPa 0,0 l/m 0,0 km/h (0 Bft) S 183 0 min 0,000 mm 0,0 UV-I 0 W/m 9,6 C 11,2 C 0,0 km/h (0 Bft) 0,00 %
17.06.2015 03:40 11,1 C 90 % 1020,6 hPa 0,0 l/m 0,0 km/h (0 Bft) S 183 0 min 0,000 mm 0,0 UV-I 0 W/m 9,5 C 11,1 C 0,0 km/h (0 Bft) 0,00 %
17.06.2015 03:45 11,0 C 91 % 1020,5 hPa 0,0 l/m 0,0 km/h (0 Bft) S 183 0 min 0,000 mm 0,0 UV-I 0 W/m 9,6 C 11,0 C 0,0 km/h (0 Bft) 0,00 %
17.06.2015 03:50 10,8 C 91 % 1020,7 hPa 0,0 l/m 0,0 km/h (0 Bft) S 183 0 min 0,000 mm 0,0 UV-I 0 W/m 9,4 C 10,8 C 0,0 km/h (0 Bft) 0,00 %
17.06.2015 03:55 10,7 C 91 % 1020,7 hPa 0,0 l/m 0,0 km/h (0 Bft) S 183 0 min 0,000 mm 0,0 UV-I 0 W/m 9,3 C 10,7 C 0,0 km/h (0 Bft) 0,00 %
17.06.2015 04:00 10,4 C 92 % 1020,8 hPa 0,0 l/m 0,0 km/h (0 Bft) S 183 0 min 0,000 mm 0,0 UV-I 0 W/m 9,2 C 10,4 C 0,0 km/h (0 Bft) 0,00 %
17.06.2015 04:05 10,3 C 92 % 1020,9 hPa 0,0 l/m 0,0 km/h (0 Bft) S 183 0 min 0,000 mm 0,0 UV-I 0 W/m 9,1 C 10,3 C 0,0 km/h (0 Bft) 0,00 %
17.06.2015 04:10 10,2 C 93 % 1021,0 hPa 0,0 l/m 0,0 km/h (0 Bft) S 183 0 min 0,000 mm 0,0 UV-I 0 W/m 9,1 C 10,2 C 0,0 km/h (0 Bft) 0,00 %
17.06.2015 04:15 10,2 C 93 % 1021,1 hPa 0,0 l/m 0,0 km/h (0 Bft) S-SO 147 0 min 0,000 mm 0,0 UV-I 0 W/m 9,1 C 10,2 C 0,0 km/h (0 Bft) 0,00 %
17.06.2015 04:20 10,1 C 94 % 1021,1 hPa 0,0 l/m 0,0 km/h (0 Bft) S 174 0 min 0,000 mm 0,0 UV-I 0 W/m 9,2 C 10,1 C 0,0 km/h (0 Bft) 0,00 %
17.06.2015 04:25 10,1 C 94 % 1021,2 hPa 0,0 l/m 0,0 km/h (0 Bft) S-SO 148 0 min 0,000 mm 0,0 UV-I 0 W/m 9,2 C 10,1 C 0,0 km/h (0 Bft) 0,00 %
17.06.2015 04:30 10,1 C 94 % 1021,1 hPa 0,0 l/m 0,0 km/h (0 Bft) S 172 0 min 0,000 mm 0,0 UV-I 0 W/m 9,2 C 10,1 C 0,0 km/h (0 Bft) 0,00 %
17.06.2015 04:35 10,1 C 94 % 1021,0 hPa 0,0 l/m 0,0 km/h (0 Bft) S 172 0 min 0,000 mm 0,0 UV-I 0 W/m 9,2 C 10,1 C 0,0 km/h (0 Bft) 0,00 %
17.06.2015 04:40 10,1 C 94 % 1021,1 hPa 0,0 l/m 0,0 km/h (0 Bft) S 172 0 min 0,000 mm 0,0 UV-I 0 W/m 9,2 C 10,1 C 0,0 km/h (0 Bft) 0,00 %
17.06.2015 04:45 10,2 C 94 % 1021,0 hPa 0,0 l/m 0,0 km/h (0 Bft) S 172 0 min 0,000 mm 0,0 UV-I 0 W/m 9,3 C 10,2 C 0,0 km/h (0 Bft) 0,00 %
17.06.2015 04:50 10,4 C 94 % 1020,9 hPa 0,0 l/m 0,0 km/h (0 Bft) S 172 0 min 0,000 mm 0,0 UV-I 0 W/m 9,5 C 10,4 C 0,0 km/h (0 Bft) 0,00 %
17.06.2015 04:55 10,5 C 94 % 1020,9 hPa 0,0 l/m 0,0 km/h (0 Bft) S 172 0 min 0,000 mm 0,0 UV-I 0 W/m 9,6 C 10,5 C 0,0 km/h (0 Bft) 0,00 %
17.06.2015 05:00 10,6 C 94 % 1021,0 hPa 0,0 l/m 0,0 km/h (0 Bft) S 172 0 min 0,000 mm 0,0 UV-I 0 W/m 9,7 C 10,6 C 0,0 km/h (0 Bft) 0,00 %
17.06.2015 05:05 10,8 C 94 % 1020,9 hPa 0,0 l/m 0,0 km/h (0 Bft) S 172 0 min 0,000 mm 0,0 UV-I 0 W/m 9,9 C 10,8 C 0,0 km/h (0 Bft) 0,00 %
17.06.2015 05:10 11,0 C 93 % 1021,0 hPa 0,0 l/m 0,0 km/h (0 Bft) S 172 0 min 0,000 mm 0,0 UV-I 0 W/m 9,9 C 11,0 C 0,0 km/h (0 Bft) 0,00 %
17.06.2015 05:15 11,2 C 93 % 1021,2 hPa 0,0 l/m 0,0 km/h (0 Bft) S 172 0 min 0,000 mm 0,0 UV-I 0 W/m 10,1 C 11,2 C 0,0 km/h (0 Bft) 0,00 %
17.06.2015 05:20 11,3 C 92 % 1021,2 hPa 0,0 l/m 0,0 km/h (0 Bft) SO 137 0 min 0,000 mm 0,0 UV-I 3 W/m 10,0 C 11,3 C 0,0 km/h (0 Bft) 0,00 %
17.06.2015 05:25 11,5 C 91 % 1021,1 hPa 0,0 l/m 0,0 km/h (0 Bft) SO 140 0 min 0,000 mm 0,0 UV-I 5 W/m 10,1 C 11,5 C 0,0 km/h (0 Bft) 0,00 %
17.06.2015 05:30 11,7 C 89 % 1021,0 hPa 0,0 l/m 0,0 km/h (0 Bft) S 174 0 min 0,000 mm 0,0 UV-I 7 W/m 9,9 C 11,7 C 0,0 km/h (0 Bft) 0,00 %
17.06.2015 05:35 11,8 C 89 % 1021,0 hPa 0,0 l/m 0,0 km/h (0 Bft) S 176 0 min 0,000 mm 1,0 UV-I 7 W/m 10,0 C 11,8 C 0,0 km/h (0 Bft) 0,00 %
17.06.2015 05:40 11,8 C 89 % 1021,1 hPa 0,0 l/m 0,0 km/h (0 Bft) S 176 0 min 0,000 mm 1,0 UV-I 9 W/m 10,0 C 11,8 C 0,0 km/h (0 Bft) 0,00 %
17.06.2015 05:45 11,7 C 89 % 1021,0 hPa 0,0 l/m 0,0 km/h (0 Bft) S 176 0 min 0,000 mm 0,0 UV-I 18 W/m 9,9 C 11,7 C 0,0 km/h (0 Bft) 0,00 %
17.06.2015 05:50 11,7 C 89 % 1021,2 hPa 0,0 l/m 0,0 km/h (0 Bft) S 176 0 min 0,000 mm 0,0 UV-I 26 W/m 9,9 C 11,7 C 0,0 km/h (0 Bft) 0,00 %
17.06.2015 05:55 11,8 C 88 % 1021,2 hPa 0,0 l/m 0,0 km/h (0 Bft) S 176 0 min 0,000 mm 0,0 UV-I 36 W/m 9,9 C 11,8 C 0,0 km/h (0 Bft) 0,00 %
17.06.2015 06:00 11,9 C 88 % 1021,4 hPa 0,0 l/m 0,0 km/h (0 Bft) S 176 0 min 0,000 mm 0,0 UV-I 47 W/m 10,0 C 11,9 C 0,0 km/h (0 Bft) 0,00 %
17.06.2015 06:05 11,9 C 88 % 1021,4 hPa 0,0 l/m 0,0 km/h (0 Bft) S 176 0 min 0,000 mm 0,0 UV-I 58 W/m 10,0 C 11,9 C 0,0 km/h (0 Bft) 0,00 %
17.06.2015 06:10 12,0 C 88 % 1021,4 hPa 0,0 l/m 0,0 km/h (0 Bft) S 176 0 min 0,000 mm 0,0 UV-I 78 W/m 10,1 C 12,0 C 0,0 km/h (0 Bft) 0,00 %
17.06.2015 06:15 12,0 C 87 % 1021,4 hPa 0,0 l/m 0,0 km/h (0 Bft) S 176 0 min 0,000 mm 0,0 UV-I 77 W/m 9,9 C 12,0 C 0,0 km/h (0 Bft) 0,00 %
17.06.2015 06:20 12,0 C 86 % 1021,4 hPa 0,0 l/m 0,0 km/h (0 Bft) S 176 0 min 0,000 mm 0,0 UV-I 62 W/m 9,7 C 12,0 C 0,0 km/h (0 Bft) 0,00 %
17.06.2015 06:25 12,0 C 86 % 1021,3 hPa 0,0 l/m 0,0 km/h (0 Bft) S 176 0 min 0,000 mm 0,0 UV-I 67 W/m 9,7 C 12,0 C 0,0 km/h (0 Bft) 0,00 %
17.06.2015 06:30 12,1 C 85 % 1021,4 hPa 0,0 l/m 0,0 km/h (0 Bft) S 176 0 min 0,000 mm 0,0 UV-I 69 W/m 9,7 C 12,1 C 0,0 km/h (0 Bft) 0,00 %
17.06.2015 06:35 12,1 C 81 % 1021,2 hPa 0,0 l/m 0,0 km/h (0 Bft) O-SO 123 0 min 0,000 mm 0,0 UV-I 72 W/m 8,9 C 12,1 C 0,0 km/h (0 Bft) 0,00 %
17.06.2015 06:40 12,1 C 80 % 1021,1 hPa 0,0 l/m 0,0 km/h (0 Bft) SO 135 0 min 0,000 mm 0,0 UV-I 70 W/m 8,8 C 12,1 C 0,0 km/h (0 Bft) 0,00 %
17.06.2015 06:45 12,3 C 80 % 1021,3 hPa 0,0 l/m 0,0 km/h (0 Bft) O-SO 121 0 min 0,000 mm 1,0 UV-I 50 W/m 8,9 C 12,3 C 0,0 km/h (0 Bft) 0,00 %
17.06.2015 06:50 12,3 C 78 % 1021,1 hPa 0,0 l/m 0,0 km/h (0 Bft) O-SO 122 0 min 0,000 mm 1,0 UV-I 54 W/m 8,6 C 12,3 C 0,0 km/h (0 Bft) 0,00 %
17.06.2015 06:55 12,5 C 77 % 1021,0 hPa 0,0 l/m 0,0 km/h (0 Bft) SO 124 0 min 0,000 mm 1,0 UV-I 53 W/m 8,6 C 12,5 C 0,0 km/h (0 Bft) 0,00 %
17.06.2015 07:00 12,7 C 76 % 1021,2 hPa 0,0 l/m 0,0 km/h (0 Bft) SO 128 0 min 0,000 mm 1,0 UV-I 43 W/m 8,6 C 12,7 C 0,0 km/h (0 Bft) 0,00 %
17.06.2015 07:05 13,3 C 73 % 1021,2 hPa 0,0 l/m 0,0 km/h (0 Bft) O 92 0 min 0,000 mm 2,0 UV-I 38 W/m 8,6 C 13,3 C 0,0 km/h (0 Bft) 0,00 %
17.06.2015 07:10 14,1 C 67 % 1021,0 hPa 0,0 l/m 1,4 km/h (1 Bft) O 86 0 min 0,000 mm 2,0 UV-I 42 W/m 8,1 C 14,1 C 4,0 km/h (1 Bft) 0,00 %
17.06.2015 07:15 14,9 C 63 % 1021,1 hPa 0,0 l/m 2,9 km/h (1 Bft) O-SO 102 0 min 0,000 mm 2,0 UV-I 49 W/m 7,9 C 14,9 C 7,9 km/h (2 Bft) 0,00 %
17.06.2015 07:20 15,3 C 62 % 1020,8 hPa 0,0 l/m 0,7 km/h (0 Bft) N 6 0 min 0,000 mm 2,0 UV-I 46 W/m 8,1 C 15,3 C 4,0 km/h (1 Bft) 0,00 %
17.06.2015 07:25 15,3 C 60 % 1021,0 hPa 0,0 l/m 4,0 km/h (1 Bft) O-NO 66 0 min 0,000 mm 2,0 UV-I 44 W/m 7,6 C 15,3 C 7,9 km/h (2 Bft) 0,00 %
17.06.2015 07:30 15,1 C 60 % 1021,1 hPa 0,0 l/m 0,7 km/h (0 Bft) O-NO 73 0 min 0,000 mm 2,0 UV-I 47 W/m 7,4 C 15,1 C 4,0 km/h (1 Bft) 0,00 %
17.06.2015 07:35 15,0 C 59 % 1020,9 hPa 0,0 l/m 7,2 km/h (2 Bft) O-NO 78 0 min 0,000 mm 2,0 UV-I 57 W/m 7,1 C 14,5 C 7,9 km/h (2 Bft) 0,00 %
17.06.2015 07:40 15,1 C 60 % 1021,0 hPa 0,0 l/m 1,4 km/h (1 Bft) NO 53 0 min 0,000 mm 2,0 UV-I 73 W/m 7,4 C 15,1 C 4,0 km/h (1 Bft) 0,00 %
17.06.2015 07:45 15,2 C 59 % 1021,0 hPa 0,0 l/m 1,4 km/h (1 Bft) N 351 0 min 0,000 mm 2,0 UV-I 103 W/m 7,2 C 15,2 C 4,0 km/h (1 Bft) 0,00 %
17.06.2015 07:50 15,2 C 59 % 1021,1 hPa 0,0 l/m 4,3 km/h (1 Bft) NO 36 0 min 0,000 mm 2,0 UV-I 145 W/m 7,2 C 15,2 C 7,9 km/h (2 Bft) 0,00 %
17.06.2015 07:55 15,2 C 58 % 1021,1 hPa 0,0 l/m 0,0 km/h (0 Bft) O-SO 117 0 min 0,000 mm 2,0 UV-I 171 W/m 7,0 C 15,2 C 0,0 km/h (0 Bft) 0,00 %
17.06.2015 08:00 15,2 C 59 % 1021,1 hPa 0,0 l/m 1,4 km/h (1 Bft) N-NW 330 5 min 0,000 mm 2,0 UV-I 410 W/m 7,2 C 15,2 C 4,0 km/h (1 Bft) 0,00 %
17.06.2015 08:05 14,9 C 62 % 1021,1 hPa 0,0 l/m 1,8 km/h (1 Bft) O 99 5 min 0,000 mm 1,0 UV-I 460 W/m 7,7 C 14,9 C 4,0 km/h (1 Bft) 0,00 %
17.06.2015 08:10 14,8 C 61 % 1021,4 hPa 0,0 l/m 0,7 km/h (0 Bft) O-SO 107 5 min 0,000 mm 1,0 UV-I 413 W/m 7,4 C 14,8 C 4,0 km/h (1 Bft) 0,00 %
17.06.2015 08:15 15,0 C 62 % 1021,3 hPa 0,0 l/m 0,0 km/h (0 Bft) SO 124 5 min 0,000 mm 1,0 UV-I 525 W/m 7,8 C 15,0 C 0,0 km/h (0 Bft) 0,00 %
17.06.2015 08:20 14,9 C 62 % 1021,4 hPa 0,0 l/m 0,0 km/h (0 Bft) N-NO 24 5 min 0,000 mm 2,0 UV-I 497 W/m 7,7 C 14,9 C 0,0 km/h (0 Bft) 0,00 %
17.06.2015 08:25 14,6 C 62 % 1021,4 hPa 0,0 l/m 1,4 km/h (1 Bft) O 84 5 min 0,000 mm 2,0 UV-I 495 W/m 7,4 C 14,6 C 4,0 km/h (1 Bft) 0,00 %
17.06.2015 08:30 14,7 C 61 % 1021,5 hPa 0,0 l/m 0,0 km/h (0 Bft) O-SO 107 5 min 0,000 mm 1,0 UV-I 506 W/m 7,3 C 14,7 C 0,0 km/h (0 Bft) 0,00 %
17.06.2015 08:35 14,9 C 60 % 1021,4 hPa 0,0 l/m 0,0 km/h (0 Bft) O 79 5 min 0,000 mm 1,0 UV-I 572 W/m 7,2 C 14,9 C 0,0 km/h (0 Bft) 0,00 %
17.06.2015 08:40 14,9 C 62 % 1021,4 hPa 0,0 l/m 0,0 km/h (0 Bft) SO 146 5 min 0,000 mm 1,0 UV-I 422 W/m 7,7 C 14,9 C 0,0 km/h (0 Bft) 0,00 %
17.06.2015 08:45 14,5 C 64 % 1021,5 hPa 0,0 l/m 0,0 km/h (0 Bft) SO 141 5 min 0,000 mm 1,0 UV-I 618 W/m 7,8 C 14,5 C 0,0 km/h (0 Bft) 0,00 %
17.06.2015 08:50 14,2 C 62 % 1021,6 hPa 0,0 l/m 0,0 km/h (0 Bft) SO 136 5 min 0,000 mm 1,0 UV-I 574 W/m 7,0 C 14,2 C 0,0 km/h (0 Bft) 0,00 %
17.06.2015 08:55 14,6 C 61 % 1021,4 hPa 0,0 l/m 0,0 km/h (0 Bft) SO 133 0 min 0,000 mm 1,0 UV-I 313 W/m 7,2 C 14,6 C 0,0 km/h (0 Bft) 0,00 %
17.06.2015 09:00 15,3 C 59 % 1021,4 hPa 0,0 l/m 0,0 km/h (0 Bft) S-SW 193 0 min 0,000 mm 2,0 UV-I 270 W/m 7,3 C 15,3 C 0,0 km/h (0 Bft) 0,00 %
17.06.2015 09:05 16,0 C 58 % 1021,4 hPa 0,0 l/m 0,0 km/h (0 Bft) O 98 0 min 0,000 mm 3,0 UV-I 205 W/m 7,7 C 16,0 C 0,0 km/h (0 Bft) 0,00 %
17.06.2015 09:10 17,2 C 53 % 1021,1 hPa 0,0 l/m 0,0 km/h (0 Bft) SW 214 0 min 0,000 mm 2,0 UV-I 204 W/m 7,5 C 17,2 C 0,0 km/h (0 Bft) 0,00 %
17.06.2015 09:15 17,7 C 56 % 1021,0 hPa 0,0 l/m 0,0 km/h (0 Bft) O-SO 118 0 min 0,000 mm 2,0 UV-I 241 W/m 8,8 C 17,7 C 0,0 km/h (0 Bft) 0,00 %
17.06.2015 09:20 17,5 C 55 % 1021,1 hPa 0,0 l/m 0,0 km/h (0 Bft) S-SO 156 0 min 0,000 mm 2,0 UV-I 269 W/m 8,4 C 17,5 C 0,0 km/h (0 Bft) 0,00 %
17.06.2015 09:25 17,1 C 58 % 1021,3 hPa 0,0 l/m 0,0 km/h (0 Bft) S 190 0 min 0,000 mm 3,0 UV-I 278 W/m 8,8 C 17,1 C 0,0 km/h (0 Bft) 0,00 %
17.06.2015 09:30 16,9 C 59 % 1021,1 hPa 0,0 l/m 0,0 km/h (0 Bft) S-SO 167 0 min 0,000 mm 3,0 UV-I 224 W/m 8,8 C 16,9 C 0,0 km/h (0 Bft) 0,00 %
17.06.2015 09:35 17,1 C 56 % 1021,2 hPa 0,0 l/m 0,0 km/h (0 Bft) S 175 0 min 0,000 mm 4,0 UV-I 184 W/m 8,3 C 17,1 C 0,0 km/h (0 Bft) 0,00 %
17.06.2015 09:40 17,9 C 54 % 1021,0 hPa 0,0 l/m 0,0 km/h (0 Bft) SO 138 0 min 0,000 mm 4,0 UV-I 151 W/m 8,5 C 17,9 C 0,0 km/h (0 Bft) 0,00 %
17.06.2015 09:45 18,4 C 54 % 1020,8 hPa 0,0 l/m 4,0 km/h (1 Bft) W 273 0 min 0,000 mm 4,0 UV-I 177 W/m 8,9 C 18,4 C 7,9 km/h (2 Bft) 0,00 %
17.06.2015 09:50 18,0 C 57 % 1020,7 hPa 0,0 l/m 0,0 km/h (0 Bft) SO 124 0 min 0,000 mm 4,0 UV-I 239 W/m 9,4 C 18,0 C 0,0 km/h (0 Bft) 0,00 %
17.06.2015 09:55 18,0 C 53 % 1020,8 hPa 0,0 l/m 4,3 km/h (1 Bft) SW 225 0 min 0,000 mm 2,0 UV-I 288 W/m 8,3 C 18,0 C 7,9 km/h (2 Bft) 0,00 %
17.06.2015 10:00 18,0 C 57 % 1020,5 hPa 0,0 l/m 0,4 km/h (0 Bft) W-NW 287 5 min 0,000 mm 2,0 UV-I 515 W/m 9,4 C 18,0 C 4,0 km/h (1 Bft) 0,00 %
17.06.2015 10:05 16,7 C 58 % 1020,9 hPa 0,0 l/m 0,0 km/h (0 Bft) SW 216 5 min 0,000 mm 2,0 UV-I 456 W/m 8,4 C 16,7 C 0,0 km/h (0 Bft) 0,00 %
17.06.2015 10:10 16,2 C 59 % 1021,1 hPa 0,0 l/m 0,0 km/h (0 Bft) S-SW 212 0 min 0,000 mm 3,0 UV-I 284 W/m 8,2 C 16,2 C 0,0 km/h (0 Bft) 0,00 %
17.06.2015 10:15 16,7 C 59 % 1020,9 hPa 0,0 l/m 0,4 km/h (0 Bft) W-SW 256 0 min 0,000 mm 3,0 UV-I 257 W/m 8,6 C 16,7 C 4,0 km/h (1 Bft) 0,00 %
17.06.2015 10:20 17,0 C 55 % 1020,7 hPa 0,0 l/m 0,0 km/h (0 Bft) W 278 5 min 0,000 mm 4,0 UV-I 586 W/m 7,9 C 17,0 C 0,0 km/h (0 Bft) 0,00 %
17.06.2015 10:25 17,0 C 58 % 1020,7 hPa 0,0 l/m 0,0 km/h (0 Bft) S-SW 206 5 min 0,000 mm 4,0 UV-I 415 W/m 8,7 C 17,0 C 0,0 km/h (0 Bft) 0,00 %
17.06.2015 10:30 17,3 C 58 % 1020,5 hPa 0,0 l/m 4,7 km/h (1 Bft) W-SW 239 5 min 0,000 mm 4,0 UV-I 651 W/m 9,0 C 17,3 C 7,9 km/h (2 Bft) 0,00 %
17.06.2015 10:35 17,9 C 53 % 1020,5 hPa 0,0 l/m 0,0 km/h (0 Bft) O-SO 113 5 min 0,000 mm 5,0 UV-I 663 W/m 8,2 C 17,9 C 0,0 km/h (0 Bft) 0,00 %
17.06.2015 10:40 18,4 C 52 % 1020,4 hPa 0,0 l/m 0,4 km/h (0 Bft) O-SO 107 5 min 0,000 mm 5,0 UV-I 683 W/m 8,4 C 18,4 C 4,0 km/h (1 Bft) 0,00 %
17.06.2015 10:45 18,1 C 51 % 1020,4 hPa 0,0 l/m 0,4 km/h (0 Bft) N-NW 330 5 min 0,000 mm 3,0 UV-I 690 W/m 7,8 C 18,1 C 4,0 km/h (1 Bft) 0,00 %
17.06.2015 10:50 18,0 C 53 % 1020,4 hPa 0,0 l/m 0,0 km/h (0 Bft) O-SO 105 0 min 0,000 mm 5,0 UV-I 305 W/m 8,3 C 18,0 C 0,0 km/h (0 Bft) 0,00 %
17.06.2015 10:55 19,0 C 55 % 1020,3 hPa 0,0 l/m 0,0 km/h (0 Bft) S 179 0 min 0,000 mm 4,0 UV-I 248 W/m 9,8 C 19,0 C 0,0 km/h (0 Bft) 0,00 %
17.06.2015 11:00 19,2 C 44 % 1020,1 hPa 0,0 l/m 0,7 km/h (0 Bft) O-SO 113 0 min 0,000 mm 3,0 UV-I 287 W/m 6,7 C 19,2 C 4,0 km/h (1 Bft) 0,00 %
17.06.2015 11:05 19,6 C 46 % 1020,2 hPa 0,0 l/m 0,0 km/h (0 Bft) W-SW 256 0 min 0,000 mm 3,0 UV-I 337 W/m 7,7 C 19,6 C 0,0 km/h (0 Bft) 0,00 %
17.06.2015 11:10 19,6 C 51 % 1020,1 hPa 0,0 l/m 0,4 km/h (0 Bft) SW 225 5 min 0,000 mm 3,0 UV-I 674 W/m 9,2 C 19,6 C 4,0 km/h (1 Bft) 0,00 %
17.06.2015 11:15 19,0 C 48 % 1020,2 hPa 0,0 l/m 0,0 km/h (0 Bft) O 97 0 min 0,000 mm 5,0 UV-I 270 W/m 7,7 C 19,0 C 0,0 km/h (0 Bft) 0,00 %
17.06.2015 11:20 18,4 C 50 % 1019,9 hPa 0,0 l/m 0,0 km/h (0 Bft) O-SO 119 5 min 0,000 mm 5,0 UV-I 775 W/m 7,8 C 18,4 C 0,0 km/h (0 Bft) 0,00 %
17.06.2015 11:25 18,0 C 50 % 1020,2 hPa 0,0 l/m 1,8 km/h (1 Bft) W-NW 293 5 min 0,000 mm 2,0 UV-I 711 W/m 7,4 C 18,0 C 4,0 km/h (1 Bft) 0,00 %
17.06.2015 11:30 17,3 C 54 % 1020,3 hPa 0,0 l/m 0,0 km/h (0 Bft) O-NO 62 5 min 0,000 mm 5,0 UV-I 802 W/m 7,9 C 17,3 C 0,0 km/h (0 Bft) 0,00 %
17.06.2015 11:35 17,9 C 48 % 1020,2 hPa 0,0 l/m 0,0 km/h (0 Bft) S-SW 210 5 min 0,000 mm 3,0 UV-I 772 W/m 6,7 C 17,9 C 0,0 km/h (0 Bft) 0,00 %
17.06.2015 11:40 19,2 C 47 % 1020,0 hPa 0,0 l/m 0,7 km/h (0 Bft) W-SW 238 5 min 0,000 mm 3,0 UV-I 512 W/m 7,6 C 19,2 C 4,0 km/h (1 Bft) 0,00 %
17.06.2015 11:45 19,3 C 46 % 1019,9 hPa 0,0 l/m 0,7 km/h (0 Bft) O-SO 117 5 min 0,000 mm 3,0 UV-I 863 W/m 7,4 C 19,3 C 4,0 km/h (1 Bft) 0,00 %
17.06.2015 11:50 19,2 C 46 % 1019,8 hPa 0,0 l/m 0,0 km/h (0 Bft) SW 222 5 min 0,000 mm 3,0 UV-I 627 W/m 7,3 C 19,2 C 0,0 km/h (0 Bft) 0,00 %
17.06.2015 11:55 19,0 C 47 % 1020,0 hPa 0,0 l/m 0,0 km/h (0 Bft) W 263 5 min 0,000 mm 2,0 UV-I 480 W/m 7,4 C 19,0 C 0,0 km/h (0 Bft) 0,00 %
17.06.2015 12:00 18,5 C 49 % 1019,9 hPa 0,0 l/m 0,0 km/h (0 Bft) N 8 0 min 0,000 mm 5,0 UV-I 401 W/m 7,6 C 18,5 C 0,0 km/h (0 Bft) 0,00 %
17.06.2015 12:05 18,7 C 46 % 1019,9 hPa 0,0 l/m 0,0 km/h (0 Bft) S 177 0 min 0,000 mm 2,0 UV-I 449 W/m 6,8 C 18,7 C 0,0 km/h (0 Bft) 0,00 %
17.06.2015 12:10 19,3 C 45 % 1019,8 hPa 0,0 l/m 0,0 km/h (0 Bft) S-SW 212 5 min 0,000 mm 2,0 UV-I 930 W/m 7,1 C 19,3 C 0,0 km/h (0 Bft) 0,00 %
17.06.2015 12:15 19,3 C 50 % 1019,7 hPa 0,0 l/m 0,0 km/h (0 Bft) O-SO 117 5 min 0,000 mm 2,0 UV-I 727 W/m 8,6 C 19,3 C 0,0 km/h (0 Bft) 0,00 %
17.06.2015 12:20 19,2 C 48 % 1019,7 hPa 0,0 l/m 2,2 km/h (1 Bft) SW 234 0 min 0,000 mm 3,0 UV-I 378 W/m 7,9 C 19,2 C 4,0 km/h (1 Bft) 0,00 %
17.06.2015 12:25 19,1 C 50 % 1019,8 hPa 0,0 l/m 0,0 km/h (0 Bft) S-SW 207 5 min 0,000 mm 2,0 UV-I 912 W/m 8,4 C 19,1 C 0,0 km/h (0 Bft) 0,00 %
17.06.2015 12:30 18,8 C 50 % 1019,7 hPa 0,0 l/m 0,7 km/h (0 Bft) W 279 5 min 0,000 mm 2,0 UV-I 490 W/m 8,2 C 18,8 C 4,0 km/h (1 Bft) 0,00 %
17.06.2015 12:35 18,5 C 51 % 1019,7 hPa 0,0 l/m 0,0 km/h (0 Bft) N-NW 340 0 min 0,000 mm 2,0 UV-I 485 W/m 8,2 C 18,5 C 0,0 km/h (0 Bft) 0,00 %
17.06.2015 12:40 18,1 C 49 % 1019,8 hPa 0,0 l/m 0,0 km/h (0 Bft) O 87 0 min 0,000 mm 1,0 UV-I 466 W/m 7,2 C 18,1 C 0,0 km/h (0 Bft) 0,00 %
17.06.2015 12:45 17,3 C 53 % 1019,9 hPa 0,0 l/m 0,4 km/h (0 Bft) N-NW 342 0 min 0,000 mm 1,0 UV-I 438 W/m 7,6 C 17,3 C 4,0 km/h (1 Bft) 0,00 %
17.06.2015 12:50 16,7 C 54 % 1019,8 hPa 0,0 l/m 0,0 km/h (0 Bft) S 180 0 min 0,000 mm 1,0 UV-I 392 W/m 7,3 C 16,7 C 0,0 km/h (0 Bft) 0,00 %
17.06.2015 12:55 17,0 C 52 % 1019,7 hPa 0,0 l/m 0,0 km/h (0 Bft) S 184 5 min 0,000 mm 2,0 UV-I 948 W/m 7,1 C 17,0 C 0,0 km/h (0 Bft) 0,00 %
17.06.2015 13:00 17,6 C 53 % 1019,4 hPa 0,0 l/m 0,0 km/h (0 Bft) S 189 0 min 0,000 mm 5,0 UV-I 407 W/m 7,9 C 17,6 C 0,0 km/h (0 Bft) 0,00 %
17.06.2015 13:05 18,6 C 48 % 1019,6 hPa 0,0 l/m 0,0 km/h (0 Bft) N-NW 333 0 min 0,000 mm 3,0 UV-I 353 W/m 7,4 C 18,6 C 0,0 km/h (0 Bft) 0,00 %
17.06.2015 13:10 19,2 C 50 % 1019,2 hPa 0,0 l/m 0,0 km/h (0 Bft) O 99 0 min 0,000 mm 3,0 UV-I 373 W/m 8,5 C 19,2 C 0,0 km/h (0 Bft) 0,00 %
17.06.2015 13:15 19,1 C 46 % 1019,3 hPa 0,0 l/m 4,0 km/h (1 Bft) W-SW 256 0 min 0,000 mm 3,0 UV-I 450 W/m 7,2 C 19,1 C 7,9 km/h (2 Bft) 0,00 %
17.06.2015 13:20 18,6 C 50 % 1019,2 hPa 0,0 l/m 0,0 km/h (0 Bft) W-NW 285 0 min 0,000 mm 2,0 UV-I 367 W/m 8,0 C 18,6 C 0,0 km/h (0 Bft) 0,00 %
17.06.2015 13:25 18,0 C 51 % 1019,3 hPa 0,0 l/m 1,4 km/h (1 Bft) W-SW 256 0 min 0,000 mm 2,0 UV-I 324 W/m 7,7 C 18,0 C 4,0 km/h (1 Bft) 0,00 %
17.06.2015 13:30 18,2 C 52 % 1019,2 hPa 0,0 l/m 0,0 km/h (0 Bft) S 173 0 min 0,000 mm 1,0 UV-I 223 W/m 8,2 C 18,2 C 0,0 km/h (0 Bft) 0,00 %
17.06.2015 13:35 18,1 C 52 % 1019,1 hPa 0,0 l/m 0,0 km/h (0 Bft) S 183 0 min 0,000 mm 1,0 UV-I 187 W/m 8,1 C 18,1 C 0,0 km/h (0 Bft) 0,00 %
17.06.2015 13:40 17,9 C 52 % 1019,2 hPa 0,0 l/m 0,0 km/h (0 Bft) S-SW 206 0 min 0,000 mm 1,0 UV-I 191 W/m 7,9 C 17,9 C 0,0 km/h (0 Bft) 0,00 %
17.06.2015 13:45 18,0 C 52 % 1019,2 hPa 0,0 l/m 0,7 km/h (0 Bft) W-SW 255 0 min 0,000 mm 1,0 UV-I 259 W/m 8,0 C 18,0 C 4,0 km/h (1 Bft) 0,00 %
17.06.2015 13:50 18,0 C 52 % 1019,0 hPa 0,0 l/m 0,4 km/h (0 Bft) S-SW 198 0 min 0,000 mm 1,0 UV-I 376 W/m 8,0 C 18,0 C 4,0 km/h (1 Bft) 0,00 %
17.06.2015 13:55 18,0 C 52 % 1019,1 hPa 0,0 l/m 0,4 km/h (0 Bft) W-SW 256 5 min 0,000 mm 2,0 UV-I 1047 W/m 8,0 C 18,0 C 4,0 km/h (1 Bft) 0,00 %
17.06.2015 14:00 18,4 C 51 % 1019,1 hPa 0,0 l/m 0,0 km/h (0 Bft) S-SW 201 5 min 0,000 mm 3,0 UV-I 878 W/m 8,1 C 18,4 C 0,0 km/h (0 Bft) 0,00 %
17.06.2015 14:05 18,8 C 49 % 1018,9 hPa 0,0 l/m 0,4 km/h (0 Bft) SW 216 0 min 0,000 mm 2,0 UV-I 448 W/m 7,9 C 18,8 C 4,0 km/h (1 Bft) 0,00 %
17.06.2015 14:10 18,7 C 48 % 1019,1 hPa 0,0 l/m 0,7 km/h (0 Bft) SW 222 0 min 0,000 mm 2,0 UV-I 363 W/m 7,5 C 18,7 C 4,0 km/h (1 Bft) 0,00 %
17.06.2015 14:15 18,0 C 51 % 1019,3 hPa 0,0 l/m 0,0 km/h (0 Bft) O-NO 69 0 min 0,000 mm 2,0 UV-I 296 W/m 7,7 C 18,0 C 0,0 km/h (0 Bft) 0,00 %
17.06.2015 14:20 17,8 C 54 % 1019,1 hPa 0,0 l/m 4,0 km/h (1 Bft) W-SW 255 0 min 0,000 mm 2,0 UV-I 259 W/m 8,4 C 17,8 C 4,0 km/h (1 Bft) 0,00 %
17.06.2015 14:25 18,2 C 52 % 1019,0 hPa 0,0 l/m 0,0 km/h (0 Bft) O 91 0 min 0,000 mm 2,0 UV-I 241 W/m 8,2 C 18,2 C 0,0 km/h (0 Bft) 0,00 %
17.06.2015 14:30 18,8 C 49 % 1018,9 hPa 0,0 l/m 3,2 km/h (1 Bft) NW 317 0 min 0,000 mm 2,0 UV-I 226 W/m 7,9 C 18,8 C 4,0 km/h (1 Bft) 0,00 %
17.06.2015 14:35 19,0 C 51 % 1018,8 hPa 0,0 l/m 0,0 km/h (0 Bft) S 178 0 min 0,000 mm 2,0 UV-I 241 W/m 8,6 C 19,0 C 0,0 km/h (0 Bft) 0,00 %
17.06.2015 14:40 18,9 C 51 % 1018,9 hPa 0,0 l/m 0,0 km/h (0 Bft) S 191 0 min 0,000 mm 2,0 UV-I 201 W/m 8,5 C 18,9 C 0,0 km/h (0 Bft) 0,00 %
17.06.2015 14:45 19,0 C 49 % 1018,6 hPa 0,0 l/m 0,0 km/h (0 Bft) O 79 0 min 0,000 mm 2,0 UV-I 238 W/m 8,0 C 19,0 C 0,0 km/h (0 Bft) 0,00 %
17.06.2015 14:50 18,8 C 49 % 1019,1 hPa 0,0 l/m 0,0 km/h (0 Bft) O-SO 123 0 min 0,000 mm 2,0 UV-I 396 W/m 7,9 C 18,8 C 0,0 km/h (0 Bft) 0,00 %
17.06.2015 14:55 18,4 C 49 % 1018,8 hPa 0,0 l/m 0,0 km/h (0 Bft) S-SW 198 0 min 0,000 mm 2,0 UV-I 360 W/m 7,5 C 18,4 C 0,0 km/h (0 Bft) 0,00 %
17.06.2015 15:00 18,1 C 53 % 1018,9 hPa 0,0 l/m 2,2 km/h (1 Bft) N-NW 336 0 min 0,000 mm 1,0 UV-I 318 W/m 8,4 C 18,1 C 4,0 km/h (1 Bft) 0,00 %
17.06.2015 15:05 17,7 C 52 % 1019,0 hPa 0,0 l/m 4,7 km/h (1 Bft) W-SW 256 0 min 0,000 mm 1,0 UV-I 318 W/m 7,7 C 17,7 C 7,9 km/h (2 Bft) 0,00 %
17.06.2015 15:10 17,3 C 53 % 1018,8 hPa 0,0 l/m 0,0 km/h (0 Bft) W-SW 255 0 min 0,000 mm 1,0 UV-I 338 W/m 7,6 C 17,3 C 0,0 km/h (0 Bft) 0,00 %
17.06.2015 15:15 17,0 C 54 % 1019,0 hPa 0,0 l/m 0,4 km/h (0 Bft) W 278 0 min 0,000 mm 1,0 UV-I 355 W/m 7,6 C 17,0 C 4,0 km/h (1 Bft) 0,00 %
17.06.2015 15:20 16,9 C 56 % 1019,1 hPa 0,0 l/m 0,0 km/h (0 Bft) N 354 0 min 0,000 mm 1,0 UV-I 334 W/m 8,1 C 16,9 C 0,0 km/h (0 Bft) 0,00 %
17.06.2015 15:25 16,8 C 56 % 1018,9 hPa 0,0 l/m 0,0 km/h (0 Bft) O 83 0 min 0,000 mm 0,0 UV-I 354 W/m 8,0 C 16,8 C 0,0 km/h (0 Bft) 0,00 %
17.06.2015 15:30 16,6 C 57 % 1019,1 hPa 0,0 l/m 0,7 km/h (0 Bft) W-SW 256 0 min 0,000 mm 0,0 UV-I 322 W/m 8,0 C 16,6 C 4,0 km/h (1 Bft) 0,00 %
17.06.2015 15:35 16,4 C 58 % 1019,1 hPa 0,0 l/m 0,4 km/h (0 Bft) NO 54 0 min 0,000 mm 1,0 UV-I 319 W/m 8,1 C 16,4 C 4,0 km/h (1 Bft) 0,00 %
17.06.2015 15:40 16,3 C 58 % 1019,0 hPa 0,0 l/m 0,4 km/h (0 Bft) W-SW 256 0 min 0,000 mm 1,0 UV-I 313 W/m 8,0 C 16,3 C 4,0 km/h (1 Bft) 0,00 %
17.06.2015 15:45 16,4 C 58 % 1018,9 hPa 0,0 l/m 0,0 km/h (0 Bft) O-SO 110 5 min 0,000 mm 1,0 UV-I 420 W/m 8,1 C 16,4 C 0,0 km/h (0 Bft) 0,00 %
17.06.2015 15:50 16,6 C 58 % 1018,7 hPa 0,0 l/m 0,4 km/h (0 Bft) O 95 0 min 0,000 mm 1,0 UV-I 238 W/m 8,3 C 16,6 C 4,0 km/h (1 Bft) 0,00 %
17.06.2015 15:55 17,0 C 56 % 1018,7 hPa 0,0 l/m 0,0 km/h (0 Bft) SO 133 0 min 0,000 mm 1,0 UV-I 181 W/m 8,2 C 17,0 C 0,0 km/h (0 Bft) 0,00 %
17.06.2015 16:00 17,4 C 54 % 1018,7 hPa 0,0 l/m 0,0 km/h (0 Bft) NW 318 0 min 0,000 mm 1,0 UV-I 152 W/m 8,0 C 17,4 C 0,0 km/h (0 Bft) 0,00 %
17.06.2015 16:05 17,5 C 54 % 1018,6 hPa 0,0 l/m 0,0 km/h (0 Bft) O-SO 108 0 min 0,000 mm 2,0 UV-I 161 W/m 8,1 C 17,5 C 0,0 km/h (0 Bft) 0,00 %
17.06.2015 16:10 17,5 C 53 % 1018,4 hPa 0,0 l/m 0,0 km/h (0 Bft) O-SO 118 0 min 0,000 mm 2,0 UV-I 106 W/m 7,8 C 17,5 C 0,0 km/h (0 Bft) 0,00 %
17.06.2015 16:15 17,6 C 54 % 1018,4 hPa 0,0 l/m 0,0 km/h (0 Bft) SO 125 0 min 0,000 mm 1,0 UV-I 77 W/m 8,2 C 17,6 C 0,0 km/h (0 Bft) 0,00 %
17.06.2015 16:20 17,6 C 54 % 1018,4 hPa 0,0 l/m 0,0 km/h (0 Bft) SO 134 0 min 0,000 mm 1,0 UV-I 57 W/m 8,2 C 17,6 C 0,0 km/h (0 Bft) 0,00 %
17.06.2015 16:25 17,4 C 55 % 1018,3 hPa 0,0 l/m 0,0 km/h (0 Bft) S-SO 168 0 min 0,000 mm 1,0 UV-I 89 W/m 8,3 C 17,4 C 0,0 km/h (0 Bft) 0,00 %
17.06.2015 16:30 17,4 C 52 % 1018,3 hPa 0,0 l/m 0,4 km/h (0 Bft) W-SW 258 0 min 0,000 mm 1,0 UV-I 126 W/m 7,4 C 17,4 C 4,0 km/h (1 Bft) 0,00 %
17.06.2015 16:35 17,4 C 52 % 1018,5 hPa 0,0 l/m 0,0 km/h (0 Bft) W-SW 239 0 min 0,000 mm 1,0 UV-I 181 W/m 7,4 C 17,4 C 0,0 km/h (0 Bft) 0,00 %
17.06.2015 16:40 17,4 C 52 % 1018,2 hPa 0,0 l/m 0,4 km/h (0 Bft) SO 140 0 min 0,000 mm 2,0 UV-I 217 W/m 7,4 C 17,4 C 4,0 km/h (1 Bft) 0,00 %
17.06.2015 16:45 17,7 C 52 % 1018,2 hPa 0,0 l/m 0,4 km/h (0 Bft) SO 137 0 min 0,000 mm 2,0 UV-I 223 W/m 7,7 C 17,7 C 4,0 km/h (1 Bft) 0,00 %
17.06.2015 16:50 18,1 C 49 % 1018,2 hPa 0,0 l/m 2,2 km/h (1 Bft) N-NO 24 0 min 0,000 mm 1,0 UV-I 239 W/m 7,2 C 18,1 C 4,0 km/h (1 Bft) 0,00 %
17.06.2015 16:55 18,0 C 53 % 1018,1 hPa 0,0 l/m 0,0 km/h (0 Bft) N 7 0 min 0,000 mm 1,0 UV-I 275 W/m 8,3 C 18,0 C 0,0 km/h (0 Bft) 0,00 %
17.06.2015 17:00 17,8 C 52 % 1018,1 hPa 0,0 l/m 1,8 km/h (1 Bft) O-SO 117 0 min 0,000 mm 1,0 UV-I 274 W/m 7,8 C 17,8 C 4,0 km/h (1 Bft) 0,00 %
17.06.2015 17:05 17,6 C 52 % 1018,0 hPa 0,0 l/m 0,0 km/h (0 Bft) O-SO 103 0 min 0,000 mm 1,0 UV-I 207 W/m 7,6 C 17,6 C 0,0 km/h (0 Bft) 0,00 %
17.06.2015 17:10 17,7 C 54 % 1018,3 hPa 0,0 l/m 1,4 km/h (1 Bft) O-SO 123 0 min 0,000 mm 1,0 UV-I 190 W/m 8,3 C 17,7 C 4,0 km/h (1 Bft) 0,00 %
17.06.2015 17:15 17,8 C 52 % 1018,1 hPa 0,0 l/m 0,0 km/h (0 Bft) O-SO 104 0 min 0,000 mm 1,0 UV-I 190 W/m 7,8 C 17,8 C 0,0 km/h (0 Bft) 0,00 %
17.06.2015 17:20 17,6 C 52 % 1018,2 hPa 0,0 l/m 0,0 km/h (0 Bft) NO 55 0 min 0,000 mm 1,0 UV-I 222 W/m 7,6 C 17,6 C 0,0 km/h (0 Bft) 0,00 %
17.06.2015 17:25 17,5 C 53 % 1018,1 hPa 0,0 l/m 0,7 km/h (0 Bft) O-NO 58 0 min 0,000 mm 1,0 UV-I 221 W/m 7,8 C 17,5 C 4,0 km/h (1 Bft) 0,00 %
17.06.2015 17:30 17,8 C 52 % 1018,1 hPa 0,0 l/m 0,4 km/h (0 Bft) O 80 5 min 0,000 mm 1,0 UV-I 374 W/m 7,8 C 17,8 C 4,0 km/h (1 Bft) 0,00 %
17.06.2015 17:35 18,0 C 52 % 1018,0 hPa 0,0 l/m 4,3 km/h (1 Bft) O-NO 76 5 min 0,000 mm 1,0 UV-I 741 W/m 8,0 C 18,0 C 7,9 km/h (2 Bft) 0,00 %
17.06.2015 17:40 17,9 C 50 % 1018,0 hPa 0,0 l/m 0,4 km/h (0 Bft) O-SO 120 0 min 0,000 mm 1,0 UV-I 270 W/m 7,3 C 17,9 C 4,0 km/h (1 Bft) 0,00 %
17.06.2015 17:45 17,8 C 52 % 1018,3 hPa 0,0 l/m 0,0 km/h (0 Bft) N-NO 28 0 min 0,000 mm 1,0 UV-I 259 W/m 7,8 C 17,8 C 0,0 km/h (0 Bft) 0,00 %
17.06.2015 17:50 18,1 C 48 % 1018,2 hPa 0,0 l/m 0,0 km/h (0 Bft) S 186 5 min 0,000 mm 1,0 UV-I 273 W/m 6,9 C 18,1 C 0,0 km/h (0 Bft) 0,00 %
17.06.2015 17:55 18,2 C 49 % 1018,0 hPa 0,0 l/m 4,0 km/h (1 Bft) O 96 0 min 0,000 mm 1,0 UV-I 256 W/m 7,3 C 18,2 C 7,9 km/h (2 Bft) 0,00 %
17.06.2015 18:00 18,5 C 48 % 1017,9 hPa 0,0 l/m 1,4 km/h (1 Bft) O-SO 104 5 min 0,000 mm 1,0 UV-I 540 W/m 7,3 C 18,5 C 4,0 km/h (1 Bft) 0,00 %
17.06.2015 18:05 18,8 C 48 % 1018,1 hPa 0,0 l/m 0,0 km/h (0 Bft) O-SO 113 0 min 0,000 mm 1,0 UV-I 231 W/m 7,6 C 18,8 C 0,0 km/h (0 Bft) 0,00 %
17.06.2015 18:10 18,8 C 46 % 1018,0 hPa 0,0 l/m 0,4 km/h (0 Bft) O 99 5 min 0,000 mm 1,0 UV-I 308 W/m 6,9 C 18,8 C 4,0 km/h (1 Bft) 0,00 %
17.06.2015 18:15 18,7 C 45 % 1017,9 hPa 0,0 l/m 0,4 km/h (0 Bft) NO 44 5 min 0,000 mm 1,0 UV-I 655 W/m 6,5 C 18,7 C 4,0 km/h (1 Bft) 0,00 %
17.06.2015 18:20 18,6 C 47 % 1018,0 hPa 0,0 l/m 0,4 km/h (0 Bft) S 184 5 min 0,000 mm 1,0 UV-I 550 W/m 7,1 C 18,6 C 4,0 km/h (1 Bft) 0,00 %
17.06.2015 18:25 18,4 C 46 % 1018,0 hPa 0,0 l/m 0,0 km/h (0 Bft) N-NO 31 5 min 0,000 mm 1,0 UV-I 307 W/m 6,6 C 18,4 C 0,0 km/h (0 Bft) 0,00 %
17.06.2015 18:30 18,5 C 45 % 1018,1 hPa 0,0 l/m 0,0 km/h (0 Bft) NO 51 5 min 0,000 mm 1,0 UV-I 569 W/m 6,3 C 18,5 C 0,0 km/h (0 Bft) 0,00 %
17.06.2015 18:35 18,7 C 43 % 1017,9 hPa 0,0 l/m 0,0 km/h (0 Bft) O 83 5 min 0,000 mm 1,0 UV-I 353 W/m 5,9 C 18,7 C 0,0 km/h (0 Bft) 0,00 %
17.06.2015 18:40 18,6 C 44 % 1018,0 hPa 0,0 l/m 0,0 km/h (0 Bft) O-SO 115 5 min 0,000 mm 1,0 UV-I 290 W/m 6,1 C 18,6 C 0,0 km/h (0 Bft) 0,00 %
17.06.2015 18:45 18,3 C 45 % 1018,1 hPa 0,0 l/m 0,0 km/h (0 Bft) O-SO 105 5 min 0,000 mm 1,0 UV-I 597 W/m 6,2 C 18,3 C 0,0 km/h (0 Bft) 0,00 %
17.06.2015 18:50 18,2 C 47 % 1018,1 hPa 0,0 l/m 0,0 km/h (0 Bft) SO 144 5 min 0,000 mm 1,0 UV-I 595 W/m 6,7 C 18,2 C 0,0 km/h (0 Bft) 0,00 %
17.06.2015 18:55 18,1 C 48 % 1018,1 hPa 0,0 l/m 0,0 km/h (0 Bft) O 89 5 min 0,000 mm 0,0 UV-I 574 W/m 6,9 C 18,1 C 0,0 km/h (0 Bft) 0,00 %
17.06.2015 19:00 18,0 C 49 % 1018,0 hPa 0,0 l/m 0,0 km/h (0 Bft) O-SO 115 5 min 0,000 mm 0,0 UV-I 573 W/m 7,1 C 18,0 C 0,0 km/h (0 Bft) 0,00 %
17.06.2015 19:05 17,7 C 47 % 1018,2 hPa 0,0 l/m 0,0 km/h (0 Bft) O-SO 122 5 min 0,000 mm 0,0 UV-I 515 W/m 6,2 C 17,7 C 0,0 km/h (0 Bft) 0,00 %
17.06.2015 19:10 17,5 C 52 % 1018,2 hPa 0,0 l/m 0,0 km/h (0 Bft) SO 125 5 min 0,000 mm 0,0 UV-I 474 W/m 7,5 C 17,5 C 0,0 km/h (0 Bft) 0,00 %
17.06.2015 19:15 17,5 C 53 % 1018,2 hPa 0,0 l/m 0,0 km/h (0 Bft) SO 132 5 min 0,000 mm 0,0 UV-I 442 W/m 7,8 C 17,5 C 0,0 km/h (0 Bft) 0,00 %
17.06.2015 19:20 17,5 C 54 % 1018,2 hPa 0,0 l/m 0,0 km/h (0 Bft) SO 132 5 min 0,000 mm 0,0 UV-I 446 W/m 8,1 C 17,5 C 0,0 km/h (0 Bft) 0,00 %
17.06.2015 19:25 17,3 C 52 % 1018,2 hPa 0,0 l/m 0,0 km/h (0 Bft) SO 132 5 min 0,000 mm 0,0 UV-I 401 W/m 7,3 C 17,3 C 0,0 km/h (0 Bft) 0,00 %
17.06.2015 19:30 17,1 C 54 % 1018,4 hPa 0,0 l/m 0,0 km/h (0 Bft) SO 132 5 min 0,000 mm 0,0 UV-I 359 W/m 7,7 C 17,1 C 0,0 km/h (0 Bft) 0,00 %
17.06.2015 19:35 16,7 C 59 % 1018,4 hPa 0,0 l/m 0,0 km/h (0 Bft) SO 135 5 min 0,000 mm 0,0 UV-I 299 W/m 8,6 C 16,7 C 0,0 km/h (0 Bft) 0,00 %
17.06.2015 19:40 16,0 C 61 % 1018,6 hPa 0,0 l/m 0,0 km/h (0 Bft) SO 135 5 min 0,000 mm 0,0 UV-I 275 W/m 8,5 C 16,0 C 0,0 km/h (0 Bft) 0,00 %
17.06.2015 19:45 15,4 C 64 % 1018,7 hPa 0,0 l/m 0,0 km/h (0 Bft) SO 139 5 min 0,000 mm 0,0 UV-I 219 W/m 8,6 C 15,4 C 0,0 km/h (0 Bft) 0,00 %
17.06.2015 19:50 15,0 C 67 % 1018,9 hPa 0,0 l/m 0,0 km/h (0 Bft) SO 136 5 min 0,000 mm 0,0 UV-I 181 W/m 8,9 C 15,0 C 0,0 km/h (0 Bft) 0,00 %
17.06.2015 19:55 14,7 C 70 % 1018,7 hPa 0,0 l/m 0,0 km/h (0 Bft) SO 133 5 min 0,000 mm 0,0 UV-I 145 W/m 9,3 C 14,7 C 0,0 km/h (0 Bft) 0,00 %
17.06.2015 20:00 14,4 C 69 % 1018,9 hPa 0,0 l/m 0,0 km/h (0 Bft) O-SO 119 5 min 0,000 mm 0,0 UV-I 149 W/m 8,8 C 14,4 C 0,0 km/h (0 Bft) 0,00 %
17.06.2015 20:05 14,1 C 70 % 1018,8 hPa 0,0 l/m 0,0 km/h (0 Bft) SO 145 5 min 0,000 mm 0,0 UV-I 112 W/m 8,7 C 14,1 C 0,0 km/h (0 Bft) 0,00 %
17.06.2015 20:10 13,9 C 70 % 1019,1 hPa 0,0 l/m 0,0 km/h (0 Bft) SO 125 5 min 0,000 mm 0,0 UV-I 107 W/m 8,5 C 13,9 C 0,0 km/h (0 Bft) 0,00 %
17.06.2015 20:15 13,7 C 72 % 1019,1 hPa 0,0 l/m 0,0 km/h (0 Bft) SO 136 5 min 0,000 mm 0,0 UV-I 99 W/m 8,7 C 13,7 C 0,0 km/h (0 Bft) 0,00 %
17.06.2015 20:20 13,6 C 73 % 1019,2 hPa 0,0 l/m 0,0 km/h (0 Bft) SO 141 0 min 0,000 mm 0,0 UV-I 45 W/m 8,9 C 13,6 C 0,0 km/h (0 Bft) 0,00 %
17.06.2015 20:25 13,4 C 76 % 1019,4 hPa 0,0 l/m 0,0 km/h (0 Bft) SO 142 0 min 0,000 mm 0,0 UV-I 22 W/m 9,3 C 13,4 C 0,0 km/h (0 Bft) 0,00 %
17.06.2015 20:30 13,2 C 78 % 1019,4 hPa 0,0 l/m 0,0 km/h (0 Bft) SO 142 0 min 0,000 mm 0,0 UV-I 11 W/m 9,4 C 13,2 C 0,0 km/h (0 Bft) 0,00 %
17.06.2015 20:35 12,9 C 79 % 1019,3 hPa 0,0 l/m 0,0 km/h (0 Bft) S-SO 154 0 min 0,000 mm 0,0 UV-I 5 W/m 9,3 C 12,9 C 0,0 km/h (0 Bft) 0,00 %
17.06.2015 20:40 12,5 C 80 % 1019,5 hPa 0,0 l/m 0,0 km/h (0 Bft) S 169 0 min 0,000 mm 0,0 UV-I 2 W/m 9,1 C 12,5 C 0,0 km/h (0 Bft) 0,00 %
17.06.2015 20:45 12,3 C 81 % 1019,5 hPa 0,0 l/m 0,0 km/h (0 Bft) S 169 0 min 0,000 mm 0,0 UV-I 0 W/m 9,1 C 12,3 C 0,0 km/h (0 Bft) 0,00 %
17.06.2015 20:50 12,1 C 81 % 1019,7 hPa 0,0 l/m 0,0 km/h (0 Bft) S 169 0 min 0,000 mm 0,0 UV-I 0 W/m 8,9 C 12,1 C 0,0 km/h (0 Bft) 0,00 %
17.06.2015 20:55 11,8 C 82 % 1019,8 hPa 0,0 l/m 0,0 km/h (0 Bft) S 170 0 min 0,000 mm 0,0 UV-I 0 W/m 8,8 C 11,8 C 0,0 km/h (0 Bft) 0,00 %
17.06.2015 21:00 11,7 C 83 % 1019,8 hPa 0,0 l/m 0,0 km/h (0 Bft) S 170 0 min 0,000 mm 0,0 UV-I 0 W/m 8,9 C 11,7 C 0,0 km/h (0 Bft) 0,00 %
17.06.2015 21:05 11,5 C 85 % 1020,0 hPa 0,0 l/m 0,0 km/h (0 Bft) SW 217 0 min 0,000 mm 0,0 UV-I 0 W/m 9,1 C 11,5 C 0,0 km/h (0 Bft) 0,00 %
17.06.2015 21:10 11,3 C 87 % 1020,0 hPa 0,0 l/m 0,0 km/h (0 Bft) S-SO 153 0 min 0,000 mm 0,0 UV-I 0 W/m 9,2 C 11,3 C 0,0 km/h (0 Bft) 0,00 %
17.06.2015 21:15 11,1 C 88 % 1019,8 hPa 0,0 l/m 0,4 km/h (0 Bft) O-SO 121 0 min 0,000 mm 0,0 UV-I 0 W/m 9,2 C 11,1 C 4,0 km/h (1 Bft) 0,00 %
17.06.2015 21:20 11,1 C 84 % 1019,9 hPa 0,0 l/m 0,0 km/h (0 Bft) S 186 0 min 0,000 mm 0,0 UV-I 0 W/m 8,5 C 11,1 C 0,0 km/h (0 Bft) 0,00 %
17.06.2015 21:25 11,2 C 84 % 1020,0 hPa 0,0 l/m 0,0 km/h (0 Bft) S 186 0 min 0,000 mm 0,0 UV-I 0 W/m 8,6 C 11,2 C 0,0 km/h (0 Bft) 0,00 %
17.06.2015 21:30 11,2 C 86 % 1019,8 hPa 0,0 l/m 0,0 km/h (0 Bft) S-SO 157 0 min 0,000 mm 0,0 UV-I 0 W/m 8,9 C 11,2 C 0,0 km/h (0 Bft) 0,00 %
17.06.2015 21:35 11,2 C 87 % 1020,1 hPa 0,0 l/m 0,0 km/h (0 Bft) S 178 0 min 0,000 mm 0,0 UV-I 0 W/m 9,1 C 11,2 C 0,0 km/h (0 Bft) 0,00 %
17.06.2015 21:40 11,1 C 85 % 1020,1 hPa 0,0 l/m 0,0 km/h (0 Bft) S 180 0 min 0,000 mm 0,0 UV-I 0 W/m 8,7 C 11,1 C 0,0 km/h (0 Bft) 0,00 %
17.06.2015 21:45 11,0 C 86 % 1019,8 hPa 0,0 l/m 0,0 km/h (0 Bft) S 180 0 min 0,000 mm 0,0 UV-I 0 W/m 8,7 C 11,0 C 0,0 km/h (0 Bft) 0,00 %
17.06.2015 21:50 11,0 C 86 % 1019,9 hPa 0,0 l/m 0,0 km/h (0 Bft) SO 138 0 min 0,000 mm 0,0 UV-I 0 W/m 8,7 C 11,0 C 0,0 km/h (0 Bft) 0,00 %
17.06.2015 21:55 10,9 C 86 % 1020,1 hPa 0,0 l/m 0,0 km/h (0 Bft) SO 146 0 min 0,000 mm 0,0 UV-I 0 W/m 8,7 C 10,9 C 0,0 km/h (0 Bft) 0,00 %
17.06.2015 22:00 10,8 C 87 % 1020,0 hPa 0,0 l/m 0,0 km/h (0 Bft) S-SO 160 0 min 0,000 mm 0,0 UV-I 0 W/m 8,7 C 10,8 C 0,0 km/h (0 Bft) 0,00 %
17.06.2015 22:05 10,7 C 89 % 1020,0 hPa 0,0 l/m 0,0 km/h (0 Bft) S-SO 160 0 min 0,000 mm 0,0 UV-I 0 W/m 9,0 C 10,7 C 0,0 km/h (0 Bft) 0,00 %
17.06.2015 22:10 10,6 C 89 % 1020,1 hPa 0,0 l/m 0,0 km/h (0 Bft) S-SO 161 0 min 0,000 mm 0,0 UV-I 0 W/m 8,9 C 10,6 C 0,0 km/h (0 Bft) 0,00 %
17.06.2015 22:15 10,4 C 90 % 1020,1 hPa 0,0 l/m 0,0 km/h (0 Bft) S-SO 161 0 min 0,000 mm 0,0 UV-I 0 W/m 8,8 C 10,4 C 0,0 km/h (0 Bft) 0,00 %
17.06.2015 22:20 10,3 C 89 % 1020,4 hPa 0,0 l/m 0,0 km/h (0 Bft) S-SO 161 0 min 0,000 mm 0,0 UV-I 0 W/m 8,6 C 10,3 C 0,0 km/h (0 Bft) 0,00 %
17.06.2015 22:25 10,3 C 89 % 1020,1 hPa 0,0 l/m 0,0 km/h (0 Bft) S-SO 161 0 min 0,000 mm 0,0 UV-I 0 W/m 8,6 C 10,3 C 0,0 km/h (0 Bft) 0,00 %
17.06.2015 22:30 10,1 C 87 % 1020,2 hPa 0,0 l/m 0,0 km/h (0 Bft) S-SO 161 0 min 0,000 mm 0,0 UV-I 0 W/m 8,0 C 10,1 C 0,0 km/h (0 Bft) 0,00 %
17.06.2015 22:35 10,0 C 85 % 1020,2 hPa 0,0 l/m 0,0 km/h (0 Bft) S-SO 161 0 min 0,000 mm 0,0 UV-I 0 W/m 7,6 C 10,0 C 0,0 km/h (0 Bft) 0,00 %
17.06.2015 22:40 10,0 C 84 % 1020,3 hPa 0,0 l/m 0,0 km/h (0 Bft) S-SO 161 0 min 0,000 mm 0,0 UV-I 0 W/m 7,4 C 10,0 C 0,0 km/h (0 Bft) 0,00 %
17.06.2015 22:45 9,9 C 84 % 1020,1 hPa 0,0 l/m 0,0 km/h (0 Bft) S-SO 161 0 min 0,000 mm 0,0 UV-I 0 W/m 7,3 C 9,9 C 0,0 km/h (0 Bft) 0,00 %
17.06.2015 22:50 9,9 C 84 % 1020,2 hPa 0,0 l/m 0,0 km/h (0 Bft) S-SO 162 0 min 0,000 mm 0,0 UV-I 0 W/m 7,3 C 9,9 C 0,0 km/h (0 Bft) 0,00 %
17.06.2015 22:55 9,9 C 84 % 1020,1 hPa 0,0 l/m 0,0 km/h (0 Bft) S-SO 162 0 min 0,000 mm 0,0 UV-I 0 W/m 7,3 C 9,9 C 0,0 km/h (0 Bft) 0,00 %
17.06.2015 23:00 9,8 C 84 % 1020,1 hPa 0,0 l/m 0,0 km/h (0 Bft) S-SO 162 0 min 0,000 mm 0,0 UV-I 0 W/m 7,2 C 9,8 C 0,0 km/h (0 Bft) 0,00 %
17.06.2015 23:05 9,7 C 84 % 1020,3 hPa 0,0 l/m 0,0 km/h (0 Bft) S-SO 162 0 min 0,000 mm 0,0 UV-I 0 W/m 7,1 C 9,7 C 0,0 km/h (0 Bft) 0,00 %
17.06.2015 23:10 9,7 C 85 % 1020,2 hPa 0,0 l/m 0,0 km/h (0 Bft) S-SO 162 0 min 0,000 mm 0,0 UV-I 0 W/m 7,3 C 9,7 C 0,0 km/h (0 Bft) 0,00 %
17.06.2015 23:15 9,6 C 85 % 1020,2 hPa 0,0 l/m 0,0 km/h (0 Bft) S-SO 162 0 min 0,000 mm 0,0 UV-I 0 W/m 7,2 C 9,6 C 0,0 km/h (0 Bft) 0,00 %
17.06.2015 23:20 9,5 C 86 % 1020,2 hPa 0,0 l/m 0,0 km/h (0 Bft) S-SO 162 0 min 0,000 mm 0,0 UV-I 0 W/m 7,3 C 9,5 C 0,0 km/h (0 Bft) 0,00 %
17.06.2015 23:25 9,4 C 85 % 1020,2 hPa 0,0 l/m 0,0 km/h (0 Bft) S-SO 162 0 min 0,000 mm 0,0 UV-I 0 W/m 7,0 C 9,4 C 0,0 km/h (0 Bft) 0,00 %
17.06.2015 23:30 9,4 C 84 % 1020,1 hPa 0,0 l/m 0,0 km/h (0 Bft) S-SO 162 0 min 0,000 mm 0,0 UV-I 0 W/m 6,8 C 9,4 C 0,0 km/h (0 Bft) 0,00 %
17.06.2015 23:35 9,3 C 83 % 1020,1 hPa 0,0 l/m 0,0 km/h (0 Bft) S-SO 162 0 min 0,000 mm 0,0 UV-I 0 W/m 6,6 C 9,3 C 0,0 km/h (0 Bft) 0,00 %
17.06.2015 23:40 9,3 C 83 % 1020,0 hPa 0,0 l/m 0,0 km/h (0 Bft) S-SO 162 0 min 0,000 mm 0,0 UV-I 0 W/m 6,6 C 9,3 C 0,0 km/h (0 Bft) 0,00 %
17.06.2015 23:45 9,2 C 85 % 1019,8 hPa 0,0 l/m 0,0 km/h (0 Bft) S-SO 162 0 min 0,000 mm 0,0 UV-I 0 W/m 6,8 C 9,2 C 0,0 km/h (0 Bft) 0,00 %
17.06.2015 23:50 9,2 C 86 % 1019,9 hPa 0,0 l/m 0,0 km/h (0 Bft) S-SO 162 0 min 0,000 mm 0,0 UV-I 0 W/m 7,0 C 9,2 C 0,0 km/h (0 Bft) 0,00 %
17.06.2015 23:55 9,1 C 87 % 1019,9 hPa 0,0 l/m 0,0 km/h (0 Bft) S-SO 162 0 min 0,000 mm 0,0 UV-I 0 W/m 7,1 C 9,1 C 0,0 km/h (0 Bft) 0,00 %
_ Min-Zeit 23:55 18:35 18:00 - 00:00 - - - - - - 18:35 23:55 00:00 00:00
Minimum _ 9,1 C 43 % 1017,9 hPa - 0,0 km/h (0 Bft) - - - - - - 5,9 C 9,1 C 0,0 km/h (0 Bft) 0,00 %
_ Max-Zeit 11:05 02:10 08:50 00:00 07:35 - - 08:00 00:00 10:35 13:55 00:25 11:05 07:15 00:00
Maximum _ 19,6 C 95 % 1021,6 hPa 0,0 l/m 7,2 km/h
O-NO (2 Bft)
- - 5 min 0,000 mm 5,0 UV-I 1047 W/m 12,8 C 19,6 C 7,9 km/h
O-SO (2 Bft)
0,00 %
Durchschnitt _ 14,8 C 69 % 1019,8 hPa #0,0 l/m 0,3 km/h (0 Bft) W-SW - #5:30 h #0,000 mm 2,0 UV-I 316 W/m 8,7 C 14,8 C 1,0 km/h (0 Bft) 0,00 %